Del Rio, TX

7:22 PM CST on January 22, 2017 (GMT -0600)
Del Rio International

Weather History for KDRT - November, 2013

Change the Weather History Date:

Thursday, November 28, 2013

  Actual Average Record
Temperature  
Mean Temperature 48 °F 56 °F  
Max Temperature 58 °F 68 °F 95 °F (1949)
Min Temperature 37 °F 44 °F 25 °F (1959)
Degree Days  
Heating Degree Days 17 9  
Month to date heating degree days 201 153  
Since 1 July heating degree days 210 177  
Cooling Degree Days 0 0  
Month to date cooling degree days 42 47  
Year to date cooling degree days 3741 3372  
Moisture  
Dew Point 30 °F    
Average Humidity 56    
Maximum Humidity 76    
Minimum Humidity 35    
Precipitation  
Precipitation 0.00 in 0.02 in 0.44 in (1996)
Month to date precipitation 0.66 0.88  
Year to date precipitation 14.99 18.82  
Sea Level Pressure  
Sea Level Pressure 30.34 in    
Wind  
Wind Speed 8 mph (ESE)    
Max Wind Speed 16 mph    
Max Gust Speed 20 mph    
Visibility 10 miles    
Events      
T = Trace of Precipitation, MM = Missing Value Source: NWS Daily Summary

Daily Weather History Graph

Daily Weather History Graph

Search for Another Location

Airport or City:

Trip Planner

Search our weather history database for the weather conditions in past years. The results will help you decide how hot, cold, wet, or windy it might be!

Date:

Astronomy

Nov. 28, 2013 Rise Set
Actual Time 7:18 AM CST 5:44 PM CST
Civil Twilight 6:52 AM CST 6:10 PM CST
Nautical Twilight 6:23 AM CST 6:39 PM CST
Astronomical Twilight 5:54 AM CST 7:08 PM CST
Moon 2:42 AM CST (11/28) 2:38 PM CST (11/28)
Length of Visible Light 11h 17m
Length of Day
10h 26m
Waning Crescent, 22% of the Moon is Illuminated
Nov 28
Waning Crescent
Dec 2
New
Dec 9
First Quarter
Dec 17
Full
Dec 25
Last Quarter

Hourly Weather History & Observations

Time (CST) Temp. Windchill Dew Point Humidity Pressure Visibility Wind Dir Wind Speed Gust Speed Precip Events Conditions
12:53 AM 42.1 °F 37.7 °F 30.0 °F 62% 30.32 in 10.0 mi ESE 6.9 mph - N/A   Clear
1:53 AM 39.9 °F 35.8 °F 30.0 °F 68% 30.32 in 10.0 mi East 5.8 mph - N/A   Clear
2:53 AM 39.0 °F 35.7 °F 30.0 °F 70% 30.32 in 10.0 mi East 4.6 mph - N/A   Clear
3:53 AM 37.9 °F 32.7 °F 30.0 °F 73% 30.32 in 10.0 mi East 6.9 mph - N/A   Clear
4:53 AM 37.9 °F 32.7 °F 28.9 °F 70% 30.33 in 10.0 mi East 6.9 mph - N/A   Clear
5:53 AM 37.9 °F 33.5 °F 28.0 °F 68% 30.34 in 10.0 mi East 5.8 mph - N/A   Clear
6:53 AM 37.9 °F 30.9 °F 27.0 °F 65% 30.35 in 10.0 mi East 10.4 mph - N/A   Clear
7:53 AM 37.0 °F 32.4 °F 27.0 °F 67% 30.37 in 10.0 mi East 5.8 mph - N/A   Clear
8:53 AM 39.0 °F 34.0 °F 27.0 °F 62% 30.39 in 10.0 mi East 6.9 mph - N/A   Clear
9:53 AM 43.0 °F 37.7 °F 28.9 °F 58% 30.40 in 10.0 mi ESE 9.2 mph - N/A   Clear
10:53 AM 46.0 °F 41.0 °F 26.1 °F 46% 30.40 in 10.0 mi SE 10.4 mph - N/A   Clear
11:53 AM 50.0 °F - 28.0 °F 43% 30.37 in 10.0 mi SE 10.4 mph - N/A   Clear
12:53 PM 53.1 °F - 28.0 °F 38% 30.33 in 10.0 mi SE 12.7 mph 19.6 mph N/A   Clear
1:53 PM 55.0 °F - 28.9 °F 37% 30.30 in 10.0 mi SE 9.2 mph - N/A   Clear
2:53 PM 57.0 °F - 30.0 °F 36% 30.28 in 10.0 mi SSE 16.1 mph 19.6 mph N/A   Clear
3:53 PM 57.0 °F - 30.9 °F 37% 30.27 in 10.0 mi SE 9.2 mph - N/A   Clear
4:53 PM 55.9 °F - 30.9 °F 39% 30.29 in 10.0 mi SE 9.2 mph - N/A   Clear
5:53 PM 53.1 °F - 33.1 °F 47% 30.31 in 10.0 mi ESE 4.6 mph - N/A   Clear
6:53 PM 52.0 °F - 32.0 °F 47% 30.33 in 10.0 mi ESE 8.1 mph - N/A   Clear
7:53 PM 50.0 °F - 32.0 °F 50% 30.35 in 10.0 mi East 9.2 mph - N/A   Clear
8:53 PM 48.0 °F - 32.0 °F 54% 30.37 in 10.0 mi ESE 6.9 mph - N/A   Clear
9:53 PM 45.0 °F 41.8 °F 30.9 °F 58% 30.38 in 10.0 mi ESE 5.8 mph - N/A   Clear
10:53 PM 44.1 °F 40.1 °F 30.0 °F 58% 30.38 in 10.0 mi ESE 6.9 mph - N/A   Clear
11:53 PM 42.1 °F - 30.0 °F 62% 30.38 in 10.0 mi Calm Calm - N/A   Clear